Hourly Weather Kakata

Today, 22 October, Thursday

Time Temperature Precipitation Wind Pressure Humidity
00:00 +23°C° 0.2 mm 0 mps 752 mmHg 96%
01:00 +23°C° 0.2 mm 0 mps 751 mmHg 96%
02:00 +23°C° 0.2 mm 0 mps 751 mmHg 96%
03:00 +22°C° 0 mm 0 mps 751 mmHg 96%
04:00 +22°C° 0 mm 0 mps 751 mmHg 96%
05:00 +22°C° 0 mm 0 mps 751 mmHg 97%
06:00 +24°C° 0 mm 0 mps 752 mmHg 92%
07:00 +25°C° 0 mm 0 mps 752 mmHg 88%
08:00 +27°C° 0 mm 0 mps 753 mmHg 83%
09:00 +30°C° 0 mm 1 mps 753 mmHg 75%
10:00 +32°C° 0 mm 1 mps 752 mmHg 68%
11:00 +33°C° 0 mm 1 mps 752 mmHg 60%
12:00 +32°C° 1.4 mm 1 mps 751 mmHg 67%
13:00 +31°C° 1.4 mm 1 mps 751 mmHg 75%
14:00 +30°C° 1.4 mm 1 mps 751 mmHg 82%
15:00 +29°C° 0.8 mm 1 mps 751 mmHg 86%
16:00 +28°C° 0.8 mm 1 mps 751 mmHg 89%
17:00 +27°C° 0.8 mm 1 mps 751 mmHg 92%
18:00 +27°C° 0 mm 1 mps 752 mmHg 93%
19:00 +26°C° 0 mm 1 mps 752 mmHg 94%
20:00 +24°C° 0 mm 0 mps 753 mmHg 95%
21:00 +24°C° 0.2 mm 0 mps 753 mmHg 96%
22:00 +23°C° 0.2 mm 0 mps 753 mmHg 96%
23:00 +23°C° 0.2 mm 0 mps 753 mmHg 96%

Tomorrow, 23 October, Friday

Time Temperature Precipitation Wind Pressure Humidity
00:00 +23°C° 0.5 mm 0 mps 752 mmHg 97%
01:00 +23°C° 0.5 mm 0 mps 752 mmHg 97%
02:00 +23°C° 0.5 mm 0 mps 751 mmHg 97%
03:00 +22°C° 0.1 mm 0 mps 752 mmHg 98%
04:00 +22°C° 0.1 mm 0 mps 752 mmHg 98%
05:00 +22°C° 0.1 mm 0 mps 752 mmHg 98%
06:00 +24°C° 0 mm 0 mps 752 mmHg 93%
07:00 +25°C° 0 mm 0 mps 753 mmHg 88%
08:00 +27°C° 0 mm 0 mps 753 mmHg 84%
09:00 +28°C° 0 mm 0 mps 753 mmHg 77%
10:00 +31°C° 0 mm 1 mps 753 mmHg 70%
11:00 +32°C° 0 mm 1 mps 752 mmHg 63%
12:00 +32°C° 0.3 mm 1 mps 752 mmHg 65%
13:00 +32°C° 0.3 mm 2 mps 751 mmHg 67%
14:00 +32°C° 0.3 mm 2 mps 751 mmHg 69%
15:00 +30°C° 0.6 mm 2 mps 751 mmHg 76%
16:00 +29°C° 0.6 mm 2 mps 751 mmHg 82%
17:00 +28°C° 0.6 mm 2 mps 751 mmHg 89%
18:00 +27°C° 0.1 mm 1 mps 752 mmHg 91%
19:00 +26°C° 0.1 mm 1 mps 752 mmHg 93%
20:00 +25°C° 0.1 mm 1 mps 753 mmHg 96%
21:00 +25°C° 0.4 mm 1 mps 753 mmHg 96%
22:00 +25°C° 0.4 mm 1 mps 753 mmHg 97%
23:00 +23°C° 0.4 mm 0 mps 753 mmHg 97%

Day after tomorrow, 24 October, Saturday

Time Temperature Precipitation Wind Pressure Humidity
00:00 +23°C° 0.1 mm 0 mps 752 mmHg 97%
01:00 +23°C° 0.1 mm 0 mps 752 mmHg 97%
02:00 +23°C° 0.1 mm 0 mps 752 mmHg 98%
03:00 +22°C° 0.1 mm 0 mps 752 mmHg 98%
04:00 +22°C° 0.1 mm 0 mps 752 mmHg 98%
05:00 +22°C° 0.1 mm 0 mps 752 mmHg 98%
06:00 +24°C° 0 mm 0 mps 752 mmHg 93%
07:00 +26°C° 0 mm 0 mps 753 mmHg 88%
08:00 +27°C° 0 mm 0 mps 753 mmHg 83%
09:00 +28°C° 0 mm 0 mps 753 mmHg 76%
10:00 +29°C° 0 mm 0 mps 753 mmHg 70%
11:00 +32°C° 0 mm 1 mps 753 mmHg 64%
12:00 +32°C° 0.3 mm 1 mps 752 mmHg 66%
13:00 +32°C° 0.3 mm 1 mps 751 mmHg 68%
14:00 +31°C° 0.3 mm 2 mps 751 mmHg 70%
15:00 +30°C° 0.6 mm 1 mps 751 mmHg 77%
16:00 +29°C° 0.6 mm 1 mps 751 mmHg 83%
17:00 +28°C° 0.6 mm 1 mps 751 mmHg 89%
18:00 +27°C° 0 mm 1 mps 751 mmHg 91%
19:00 +26°C° 0 mm 1 mps 752 mmHg 93%
20:00 +25°C° 0 mm 1 mps 752 mmHg 95%
21:00 +25°C° 0.1 mm 1 mps 752 mmHg 95%
22:00 +23°C° 0.1 mm 0 mps 752 mmHg 96%
23:00 +23°C° 0.1 mm 0 mps 752 mmHg 96%

, 25 October, Sunday

Time Temperature Precipitation Wind Pressure Humidity
00:00 +23°C° 0.1 mm 0 mps 752 mmHg 96%
01:00 +22°C° 0.1 mm 0 mps 751 mmHg 97%
02:00 +22°C° 0.1 mm 0 mps 751 mmHg 97%
03:00 +22°C° 0.3 mm 0 mps 751 mmHg 97%
04:00 +22°C° 0.3 mm 0 mps 751 mmHg 97%
05:00 +22°C° 0.3 mm 0 mps 751 mmHg 97%
06:00 +24°C° 0 mm 0 mps 751 mmHg 92%
07:00 +25°C° 0 mm 0 mps 752 mmHg 87%
08:00 +27°C° 0 mm 0 mps 752 mmHg 82%
09:00 +28°C° 0 mm 0 mps 752 mmHg 77%
10:00 +29°C° 0 mm 0 mps 752 mmHg 72%
11:00 +32°C° 0 mm 1 mps 752 mmHg 66%
12:00 +31°C° 0.2 mm 1 mps 751 mmHg 68%
13:00 +31°C° 0.2 mm 1 mps 750 mmHg 70%
14:00 +31°C° 0.2 mm 1 mps 750 mmHg 72%
15:00 +30°C° 0.5 mm 1 mps 750 mmHg 78%
16:00 +29°C° 0.5 mm 1 mps 750 mmHg 84%
17:00 +28°C° 0.5 mm 1 mps 750 mmHg 89%
18:00 +27°C° 0 mm 1 mps 750 mmHg 91%
19:00 +26°C° 0 mm 1 mps 751 mmHg 93%
20:00 +25°C° 0 mm 1 mps 751 mmHg 95%
21:00 +25°C° 0 mm 1 mps 751 mmHg 95%
22:00 +23°C° 0 mm 0 mps 751 mmHg 96%
23:00 +23°C° 0 mm 0 mps 751 mmHg 96%

25 October, Sunday

Time Temperature Precipitation Wind Pressure Humidity
00:00 +23°C° 0.1 mm 0 mps 752 mmHg 96%
01:00 +22°C° 0.1 mm 0 mps 751 mmHg 97%
02:00 +22°C° 0.1 mm 0 mps 751 mmHg 97%
03:00 +22°C° 0.3 mm 0 mps 751 mmHg 97%
04:00 +22°C° 0.3 mm 0 mps 751 mmHg 97%
05:00 +22°C° 0.3 mm 0 mps 751 mmHg 97%
06:00 +24°C° 0 mm 0 mps 751 mmHg 92%
07:00 +25°C° 0 mm 0 mps 752 mmHg 87%
08:00 +27°C° 0 mm 0 mps 752 mmHg 82%
09:00 +28°C° 0 mm 0 mps 752 mmHg 77%
10:00 +29°C° 0 mm 0 mps 752 mmHg 72%
11:00 +32°C° 0 mm 1 mps 752 mmHg 66%
12:00 +31°C° 0.2 mm 1 mps 751 mmHg 68%
13:00 +31°C° 0.2 mm 1 mps 750 mmHg 70%
14:00 +31°C° 0.2 mm 1 mps 750 mmHg 72%
15:00 +30°C° 0.5 mm 1 mps 750 mmHg 78%
16:00 +29°C° 0.5 mm 1 mps 750 mmHg 84%
17:00 +28°C° 0.5 mm 1 mps 750 mmHg 89%
18:00 +27°C° 0 mm 1 mps 750 mmHg 91%
19:00 +26°C° 0 mm 1 mps 751 mmHg 93%
20:00 +25°C° 0 mm 1 mps 751 mmHg 95%
21:00 +25°C° 0 mm 1 mps 751 mmHg 95%
22:00 +23°C° 0 mm 0 mps 751 mmHg 96%
23:00 +23°C° 0 mm 0 mps 751 mmHg 96%

26 October, Monday

Time Temperature Precipitation Wind Pressure Humidity
00:00 +23°C° 0 mm 0 mps 751 mmHg 96%
01:00 +23°C° 0 mm 0 mps 750 mmHg 96%
02:00 +23°C° 0 mm 0 mps 750 mmHg 96%
03:00 +23°C° 0 mm 0 mps 750 mmHg 96%
04:00 +23°C° 0 mm 0 mps 750 mmHg 96%
05:00 +23°C° 0 mm 0 mps 750 mmHg 96%
06:00 +24°C° 0 mm 0 mps 751 mmHg 92%
07:00 +25°C° 0 mm 0 mps 751 mmHg 87%
08:00 +27°C° 0 mm 0 mps 751 mmHg 82%
09:00 +28°C° 0 mm 0 mps 751 mmHg 77%
10:00 +29°C° 0 mm 0 mps 751 mmHg 71%
11:00 +30°C° 0 mm 0 mps 751 mmHg 66%
12:00 +32°C° 0.3 mm 1 mps 750 mmHg 67%
13:00 +32°C° 0.3 mm 1 mps 749 mmHg 68%
14:00 +31°C° 0.3 mm 1 mps 749 mmHg 69%
15:00 +30°C° 0.7 mm 1 mps 749 mmHg 76%
16:00 +29°C° 0.7 mm 1 mps 749 mmHg 83%
17:00 +28°C° 0.7 mm 1 mps 749 mmHg 90%
18:00 +27°C° 0 mm 1 mps 750 mmHg 92%
19:00 +26°C° 0 mm 1 mps 750 mmHg 94%
20:00 +24°C° 0 mm 0 mps 751 mmHg 95%
21:00 +23°C° 0.1 mm 0 mps 751 mmHg 96%
22:00 +23°C° 0.1 mm 0 mps 751 mmHg 96%
23:00 +23°C° 0.1 mm 0 mps 751 mmHg 96%

27 October, Tuesday

Time Temperature Precipitation Wind Pressure Humidity
00:00 +23°C° 0 mm 0 mps 750 mmHg 96%
01:00 +23°C° 0 mm 0 mps 750 mmHg 97%
02:00 +23°C° 0 mm 0 mps 749 mmHg 97%
03:00 +23°C° 0 mm 0 mps 749 mmHg 97%
04:00 +22°C° 0 mm 0 mps 749 mmHg 97%
05:00 +22°C° 0 mm 0 mps 750 mmHg 97%
06:00 +24°C° 0 mm 0 mps 750 mmHg 92%
07:00 +26°C° 0 mm 0 mps 750 mmHg 86%
08:00 +27°C° 0 mm 0 mps 751 mmHg 81%
09:00 +28°C° 0.1 mm 0 mps 751 mmHg 75%
10:00 +30°C° 0.1 mm 0 mps 750 mmHg 70%
11:00 +33°C° 0.1 mm 1 mps 750 mmHg 65%
12:00 +32°C° 1 mm 1 mps 749 mmHg 69%
13:00 +31°C° 1 mm 1 mps 749 mmHg 74%
14:00 +31°C° 1 mm 2 mps 748 mmHg 79%
15:00 +30°C° 0.8 mm 2 mps 748 mmHg 83%
16:00 +29°C° 0.8 mm 1 mps 749 mmHg 87%
17:00 +28°C° 0.8 mm 1 mps 749 mmHg 91%
18:00 +27°C° 0.1 mm 1 mps 750 mmHg 92%
19:00 +26°C° 0.1 mm 1 mps 750 mmHg 94%
20:00 +26°C° 0.1 mm 1 mps 751 mmHg 95%
21:00 +26°C° 0.6 mm 1 mps 750 mmHg 96%
22:00 +26°C° 0.6 mm 1 mps 750 mmHg 96%
23:00 +25°C° 0.6 mm 1 mps 750 mmHg 96%
Show more